Location: Devore Heights
(34.2372°N, 117.4156°W)
Time: 08:23:02
(UTC+00:00)

Altair - Pass Details

Date: 20 September 2024
Orbit: 1501 x 1682 km, 47.2° (Epoch: 07 October)

Event Time Altitude Azimuth Distance (km) Brightness Sun altitude
Rises 07:20:17 0° 212° (SSW) 4,744 - -54.5°
Reaches altitude 10° 07:23:24 10° 207° (SSW) 3,786 - -54.6°
Maximum altitude 07:32:42 54° 134° (SE) 1,926 - -54.8°
Exits shadow 07:41:45 12° 62° (ENE) 3,744 9.6 -54.9°
Drops below altitude 10° 07:42:20 10° 61° (ENE) 3,923 9.8 -54.9°
Sets 07:45:37 0° 57° (ENE) 4,925 10.4 -54.9°
